QPF
0.02 0.02 0.02 0.01 0.01 0.02 0.02 0.01 0.00 0.00 0.00 0.00 0.00 0.00 0.01 0.01 0.01 0.01 0.01 0.01 0.01 0.01 0.01 0.01 0.02 0.01 0.01 0.02 0.03 0.03 0.02 0.02 0.04 0.05 0.04 0.02 0.03 0.03 0.02 0.03 0.04 0.04 0.05
0.02 0.02 0.02 0.02 0.02 0.01 0.01 0.01 0.01 0.00 0.00 0.00 0.00 0.01 0.01 0.01 0.01 0.01 0.01 0.01 0.01 0.01 0.01 0.01 0.02 0.02 0.02 0.03 0.03 0.03 0.02 0.02 0.02 0.03 0.03 0.02 0.01 0.02 0.02 0.03 0.04 0.03 0.04
0.02 0.02 0.02 0.02 0.02 0.01 0.01 0.00 0.01 0.01 0.00 0.00 0.00 0.01 0.01 0.01 0.01 0.02 0.02 0.02 0.01 0.01 0.01 0.01 0.02 0.02 0.02 0.02 0.02 0.02 0.02 0.02 0.02 0.02 0.02 0.02 0.01 0.00 0.01 0.01 0.02 0.02 0.02
0.01 0.02 0.02 0.02 0.02 0.02 0.01 0.01 0.01 0.01 0.01 0.01 0.00 0.00 0.01 0.01 0.02 0.01 0.02 0.03 0.02 0.02 0.02 0.02 0.02 0.03 0.03 0.02 0.03 0.03 0.03 0.03 0.02 0.02 0.02 0.02 0.01 0.01 0.00 0.01 0.01 0.01 0.01
0.03 0.04 0.04 0.03 0.03 0.02 0.02 0.02 0.02 0.02 0.01 0.01 0.01 0.01 0.01 0.01 0.01 0.01 0.01 0.03 0.03 0.03 0.03 0.03 0.03 0.03 0.03 0.03 0.03 0.03 0.02 0.02 0.01 0.01 0.01 0.02 0.01 0.01 0.01 0.00 0.01 0.00 0.01
0.02 0.01 0.02 0.03 0.02 0.02 0.02 0.03 0.02 0.02 0.02 0.02 0.01 0.01 0.02 0.02 0.02 0.02 0.01 0.03 0.03 0.04 0.03 0.03 0.03 0.03 0.04 0.04 0.03 0.02 0.02 0.02 0.02 0.02 0.01 0.01 0.01 0.02 0.02 0.01 0.00 0.00 0.01
0.01 0.01 0.01 0.01 0.02 0.02 0.02 0.02 0.02 0.02 0.02 0.02 0.01 0.01 0.02 0.01 0.02 0.03 0.03 0.03 0.02 0.03 0.04 0.05 0.05 0.04 0.05 0.04 0.03 0.02 0.02 0.02 0.02 0.01 0.01 0.02 0.02 0.03 0.02 0.02 0.01 0.01 0.01
0.01 0.02 0.02 0.02 0.03 0.04 0.04 0.04 0.03 0.03 0.02 0.02 0.01 0.02 0.03 0.02 0.02 0.02 0.02 0.03 0.02 0.04 0.05 0.07 0.08 0.06 0.05 0.06 0.04 0.03 0.02 0.02 0.02 0.02 0.02 0.02 0.02 0.03 0.03 0.04 0.03 0.02 0.01
0.01 0.01 0.02 0.04 0.05 0.04 0.04 0.05 0.04 0.04 0.03 0.02 0.02 0.02 0.02 0.02 0.02 0.02 0.02 0.03 0.04 0.07 0.06 0.05 0.06 0.06 0.06 0.07 0.06 0.05 0.03 0.03 0.02 0.02 0.02 0.01 0.02 0.03 0.05 0.05 0.06 0.05 0.03
0.01 0.02 0.02 0.05 0.07 0.06 0.07 0.09 0.09 0.08 0.07 0.06 0.04 0.03 0.03 0.03 0.04 0.03 0.03 0.04 0.05 0.05 0.04 0.03 0.03 0.04 0.05 0.06 0.08 0.09 0.08 0.06 0.04 0.04 0.03 0.02 0.03 0.05 0.06 0.05 0.05 0.05 0.04
0.01 0.01 0.02 0.05 0.09 0.09 0.09 0.14 0.14 0.13 0.10 0.08 0.06 0.05 0.04 0.06 0.06 0.05 0.04 0.03 0.03 0.02 0.03 0.03 0.04 0.04 0.05 0.07 0.09 0.10 0.10 0.08 0.07 0.07 0.05 0.04 0.06 0.05 0.04 0.04 0.04 0.04 0.04
0.02 0.02 0.02 0.04 0.07 0.08 0.08 0.10 0.11 0.11 0.10 0.09 0.08 0.07 0.06 0.07 0.05 0.03 0.03 0.04 0.05 0.05 0.06 0.06 0.06 0.06 0.07 0.10 0.09 0.08 0.08 0.06 0.05 0.07 0.08 0.06 0.08 0.06 0.04 0.03 0.03 0.03 0.04
0.02 0.02 0.03 0.03 0.04 0.06 0.05 0.06 0.09 0.10 0.10 0.09 0.08 0.06 0.06 0.05 0.04 0.04 0.06 0.06 0.07 0.07 0.07 0.07 0.05 0.05 0.06 0.08 0.08 0.07 0.07 0.07 0.06 0.07 0.08 0.06 0.07 0.04 0.03 0.03 0.02 0.03 0.03
0.02 0.02 0.02 0.02 0.02 0.03 0.03 0.05 0.06 0.08 0.08 0.07 0.06 0.06 0.06 0.05 0.05 0.05 0.04 0.03 0.04 0.04 0.04 0.04 0.05 0.07 0.08 0.08 0.07 0.06 0.07 0.07 0.08 0.09 0.07 0.06 0.05 0.05 0.04 0.03 0.02 0.02 0.02
0.02 0.02 0.02 0.03 0.02 0.02 0.02 0.03 0.04 0.06 0.08 0.08 0.06 0.06 0.06 0.05 0.06 0.05 0.04 0.03 0.03 0.02 0.03 0.03 0.04 0.08 0.09 0.07 0.06 0.08 0.10 0.10 0.09 0.09 0.09 0.08 0.07 0.06 0.05 0.03 0.03 0.03 0.03
0.02 0.02 0.04 0.03 0.04 0.03 0.03 0.05 0.05 0.06 0.09 0.09 0.07 0.07 0.06 0.05 0.04 0.05 0.05 0.04 0.03 0.02 0.03 0.03 0.04 0.06 0.08 0.10 0.11 0.12 0.12 0.11 0.10 0.10 0.09 0.09 0.08 0.06 0.06 0.04 0.04 0.04 0.03
0.02 0.03 0.04 0.05 0.07 0.08 0.07 0.06 0.05 0.06 0.07 0.07 0.07 0.08 0.07 0.06 0.06 0.06 0.06 0.05 0.05 0.04 0.03 0.04 0.05 0.05 0.07 0.10 0.11 0.12 0.13 0.12 0.12 0.11 0.10 0.10 0.08 0.07 0.06 0.07 0.08 0.06 0.04
0.02 0.03 0.05 0.07 0.07 0.07 0.08 0.09 0.08 0.07 0.08 0.09 0.08 0.08 0.08 0.06 0.06 0.06 0.05 0.05 0.06 0.06 0.06 0.05 0.05 0.06 0.07 0.09 0.09 0.10 0.09 0.08 0.09 0.08 0.08 0.08 0.08 0.07 0.09 0.08 0.08 0.06 0.04
0.02 0.02 0.04 0.05 0.06 0.05 0.06 0.08 0.09 0.10 0.10 0.10 0.08 0.07 0.08 0.06 0.05 0.05 0.05 0.05 0.07 0.07 0.07 0.07 0.06 0.06 0.06 0.08 0.07 0.08 0.05 0.05 0.05 0.06 0.06 0.07 0.08 0.10 0.10 0.09 0.08 0.08 0.06
0.02 0.03 0.03 0.04 0.05 0.06 0.06 0.06 0.06 0.08 0.08 0.08 0.08 0.07 0.07 0.06 0.04 0.03 0.04 0.04 0.04 0.05 0.06 0.06 0.05 0.05 0.04 0.05 0.05 0.05 0.04 0.06 0.06 0.07 0.07 0.09 0.09 0.11 0.13 0.12 0.12 0.10 0.08
0.02 0.02 0.05 0.07 0.09 0.10 0.08 0.06 0.04 0.05 0.07 0.07 0.06 0.06 0.06 0.05 0.04 0.03 0.03 0.03 0.04 0.05 0.05 0.05 0.06 0.05 0.05 0.05 0.05 0.06 0.07 0.10 0.11 0.13 0.15 0.16 0.16 0.17 0.18 0.15 0.12 0.10 0.08
0.02 0.03 0.05 0.12 0.16 0.17 0.13 0.09 0.05 0.04 0.06 0.05 0.05 0.05 0.05 0.04 0.03 0.03 0.03 0.04 0.05 0.05 0.06 0.07 0.08 0.08 0.08 0.08 0.08 0.09 0.10 0.11 0.11 0.13 0.15 0.18 0.19 0.17 0.14 0.11 0.09 0.08 0.05
0.01 0.03 0.04 0.07 0.10 0.12 0.12 0.08 0.07 0.07 0.05 0.04 0.04 0.04 0.05 0.04 0.03 0.03 0.03 0.03 0.04 0.05 0.05 0.06 0.06 0.06 0.05 0.05 0.07 0.08 0.09 0.10 0.10 0.11 0.14 0.16 0.17 0.14 0.11 0.07 0.06 0.04 0.03
0.02 0.03 0.05 0.07 0.09 0.12 0.13 0.09 0.08 0.07 0.06 0.05 0.04 0.04 0.04 0.04 0.04 0.04 0.04 0.03 0.03 0.04 0.04 0.04 0.04 0.03 0.02 0.02 0.02 0.04 0.06 0.07 0.09 0.10 0.12 0.13 0.12 0.10 0.07 0.05 0.04 0.03 0.03
0.02 0.03 0.04 0.05 0.07 0.10 0.11 0.09 0.07 0.07 0.06 0.04 0.04 0.03 0.03 0.03 0.03 0.04 0.04 0.03 0.03 0.03 0.03 0.04 0.04 0.03 0.02 0.02 0.03 0.03 0.04 0.04 0.06 0.07 0.07 0.08 0.08 0.07 0.06 0.05 0.06 0.06 0.06
0.03 0.03 0.03 0.04 0.08 0.11 0.10 0.08 0.07 0.07 0.09 0.07 0.05 0.04 0.03 0.03 0.03 0.03 0.03 0.03 0.03 0.05 0.05 0.05 0.04 0.03 0.03 0.03 0.03 0.04 0.06 0.07 0.09 0.10 0.11 0.11 0.10 0.09 0.07 0.06 0.07 0.08 0.08
MSLP
1011.09 1011.21 1011.37 1011.56 1011.79 1012.05 1012.36 1012.72 1013.14 1013.58 1014.03 1014.46 1014.86 1015.20 1015.49 1015.71 1015.90 1016.07 1016.24 1016.42 1016.63 1016.86 1017.12 1017.39 1017.67 1017.95 1018.24 1018.54 1018.85 1019.19 1019.55 1019.92 1020.30 1020.65 1020.96 1021.19 1021.35 1021.42 1021.41 1021.34 1021.24 1021.14 1021.07
1010.58 1010.73 1010.91 1011.11 1011.33 1011.58 1011.87 1012.23 1012.65 1013.13 1013.64 1014.14 1014.62 1015.02 1015.34 1015.58 1015.74 1015.86 1015.96 1016.09 1016.25 1016.47 1016.74 1017.05 1017.38 1017.73 1018.07 1018.41 1018.75 1019.09 1019.44 1019.80 1020.17 1020.53 1020.86 1021.14 1021.33 1021.45 1021.47 1021.42 1021.32 1021.20 1021.08
1009.86 1010.04 1010.26 1010.50 1010.74 1011.00 1011.31 1011.67 1012.12 1012.63 1013.19 1013.77 1014.31 1014.77 1015.13 1015.37 1015.51 1015.58 1015.63 1015.70 1015.81 1016.01 1016.28 1016.62 1017.01 1017.41 1017.80 1018.18 1018.53 1018.87 1019.21 1019.56 1019.92 1020.28 1020.62 1020.93 1021.17 1021.34 1021.41 1021.39 1021.30 1021.17 1021.04
1008.95 1009.18 1009.46 1009.76 1010.06 1010.36 1010.68 1011.07 1011.53 1012.08 1012.68 1013.30 1013.90 1014.40 1014.79 1015.05 1015.18 1015.22 1015.22 1015.24 1015.32 1015.49 1015.76 1016.13 1016.55 1016.99 1017.43 1017.83 1018.20 1018.54 1018.87 1019.20 1019.54 1019.89 1020.24 1020.58 1020.87 1021.08 1021.20 1021.23 1021.17 1021.06 1020.91
1007.96 1008.25 1008.61 1008.98 1009.34 1009.69 1010.04 1010.44 1010.92 1011.47 1012.10 1012.75 1013.37 1013.92 1014.34 1014.60 1014.73 1014.75 1014.73 1014.71 1014.77 1014.92 1015.19 1015.56 1016.00 1016.47 1016.94 1017.37 1017.75 1018.08 1018.40 1018.71 1019.03 1019.37 1019.74 1020.09 1020.42 1020.68 1020.86 1020.93 1020.92 1020.83 1020.70
1007.01 1007.36 1007.80 1008.26 1008.69 1009.08 1009.46 1009.86 1010.32 1010.86 1011.48 1012.13 1012.76 1013.32 1013.76 1014.05 1014.18 1014.21 1014.17 1014.14 1014.17 1014.30 1014.55 1014.92 1015.37 1015.85 1016.33 1016.77 1017.15 1017.49 1017.80 1018.09 1018.41 1018.75 1019.11 1019.49 1019.85 1020.15 1020.38 1020.51 1020.55 1020.49 1020.38
1006.24 1006.66 1007.18 1007.71 1008.20 1008.62 1009.00 1009.38 1009.80 1010.30 1010.87 1011.48 1012.10 1012.66 1013.11 1013.41 1013.57 1013.60 1013.57 1013.53 1013.54 1013.64 1013.87 1014.21 1014.64 1015.11 1015.59 1016.03 1016.42 1016.76 1017.07 1017.36 1017.67 1018.02 1018.40 1018.79 1019.18 1019.53 1019.81 1020.00 1020.08 1020.07 1019.98
1005.76 1006.24 1006.84 1007.43 1007.95 1008.38 1008.74 1009.06 1009.42 1009.83 1010.33 1010.88 1011.46 1012.00 1012.45 1012.76 1012.94 1012.98 1012.95 1012.90 1012.89 1012.96 1013.14 1013.44 1013.83 1014.27 1014.72 1015.15 1015.55 1015.90 1016.22 1016.53 1016.86 1017.22 1017.61 1018.04 1018.46 1018.85 1019.18 1019.41 1019.55 1019.58 1019.52
1005.62 1006.17 1006.81 1007.44 1007.97 1008.38 1008.69 1008.94 1009.20 1009.52 1009.92 1010.40 1010.91 1011.41 1011.84 1012.16 1012.34 1012.39 1012.36 1012.29 1012.23 1012.25 1012.37 1012.60 1012.93 1013.32 1013.74 1014.16 1014.56 1014.93 1015.27 1015.61 1015.97 1016.37 1016.79 1017.25 1017.71 1018.14 1018.51 1018.80 1018.98 1019.06 1019.04
1005.82 1006.41 1007.09 1007.72 1008.24 1008.61 1008.85 1009.02 1009.18 1009.39 1009.69 1010.07 1010.51 1010.96 1011.35 1011.65 1011.81 1011.86 1011.80 1011.69 1011.59 1011.54 1011.58 1011.72 1011.97 1012.30 1012.68 1013.08 1013.48 1013.87 1014.26 1014.64 1015.05 1015.48 1015.95 1016.44 1016.94 1017.41 1017.83 1018.17 1018.41 1018.54 1018.57
1006.27 1006.89 1007.57 1008.19 1008.67 1008.99 1009.16 1009.25 1009.32 1009.44 1009.64 1009.93 1010.29 1010.66 1011.00 1011.26 1011.39 1011.39 1011.30 1011.13 1010.95 1010.82 1010.76 1010.81 1010.98 1011.24 1011.57 1011.95 1012.36 1012.78 1013.20 1013.64 1014.10 1014.58 1015.09 1015.62 1016.15 1016.66 1017.12 1017.51 1017.80 1018.00 1018.10
1006.85 1007.48 1008.14 1008.73 1009.16 1009.43 1009.55 1009.58 1009.58 1009.62 1009.74 1009.95 1010.23 1010.53 1010.80 1010.99 1011.06 1011.00 1010.84 1010.60 1010.33 1010.10 1009.95 1009.90 1009.98 1010.17 1010.46 1010.82 1011.23 1011.67 1012.14 1012.62 1013.12 1013.64 1014.18 1014.74 1015.30 1015.84 1016.34 1016.78 1017.14 1017.41 1017.59
1007.41 1008.03 1008.66 1009.20 1009.60 1009.83 1009.92 1009.92 1009.89 1009.89 1009.96 1010.10 1010.31 1010.53 1010.72 1010.82 1010.81 1010.67 1010.42 1010.10 1009.75 1009.42 1009.17 1009.04 1009.04 1009.16 1009.41 1009.75 1010.15 1010.61 1011.09 1011.60 1012.12 1012.66 1013.22 1013.78 1014.35 1014.91 1015.44 1015.92 1016.35 1016.71 1016.98
1007.85 1008.44 1009.03 1009.53 1009.90 1010.13 1010.22 1010.23 1010.21 1010.20 1010.25 1010.35 1010.49 1010.64 1010.74 1010.75 1010.64 1010.41 1010.07 1009.66 1009.22 1008.81 1008.49 1008.28 1008.21 1008.28 1008.48 1008.79 1009.18 1009.62 1010.10 1010.60 1011.12 1011.64 1012.18 1012.73 1013.28 1013.84 1014.38 1014.91 1015.39 1015.83 1016.21
1008.10 1008.65 1009.20 1009.68 1010.04 1010.29 1010.42 1010.48 1010.51 1010.53 1010.59 1010.67 1010.76 1010.83 1010.85 1010.76 1010.56 1010.23 1009.81 1009.32 1008.82 1008.35 1007.96 1007.70 1007.58 1007.60 1007.75 1008.02 1008.37 1008.77 1009.22 1009.68 1010.15 1010.62 1011.11 1011.60 1012.12 1012.65 1013.19 1013.74 1014.28 1014.79 1015.28
1008.15 1008.66 1009.18 1009.66 1010.05 1010.34 1010.55 1010.69 1010.79 1010.88 1010.97 1011.05 1011.11 1011.12 1011.05 1010.88 1010.59 1010.19 1009.70 1009.16 1008.61 1008.10 1007.68 1007.38 1007.22 1007.20 1007.30 1007.51 1007.80 1008.14 1008.51 1008.89 1009.27 1009.67 1010.07 1010.49 1010.94 1011.42 1011.94 1012.49 1013.06 1013.65 1014.22
1008.05 1008.54 1009.05 1009.54 1009.97 1010.35 1010.65 1010.89 1011.09 1011.26 1011.39 1011.49 1011.53 1011.50 1011.37 1011.14 1010.79 1010.33 1009.81 1009.24 1008.68 1008.16 1007.73 1007.41 1007.22 1007.16 1007.20 1007.34 1007.55 1007.79 1008.06 1008.33 1008.61 1008.89 1009.19 1009.51 1009.88 1010.30 1010.78 1011.31 1011.90 1012.52 1013.16
1007.89 1008.37 1008.89 1009.41 1009.91 1010.37 1010.78 1011.14 1011.44 1011.69 1011.88 1012.01 1012.05 1011.99 1011.84 1011.57 1011.19 1010.73 1010.20 1009.65 1009.10 1008.60 1008.18 1007.86 1007.65 1007.54 1007.52 1007.57 1007.68 1007.81 1007.96 1008.12 1008.27 1008.44 1008.63 1008.86 1009.13 1009.48 1009.90 1010.41 1010.98 1011.61 1012.28
1007.75 1008.25 1008.80 1009.38 1009.95 1010.49 1011.00 1011.46 1011.86 1012.19 1012.44 1012.60 1012.66 1012.61 1012.46 1012.19 1011.83 1011.39 1010.91 1010.40 1009.90 1009.45 1009.05 1008.74 1008.51 1008.35 1008.27 1008.23 1008.23 1008.26 1008.29 1008.33 1008.37 1008.44 1008.53 1008.67 1008.87 1009.15 1009.51 1009.97 1010.51 1011.12 1011.78
1007.74 1008.27 1008.86 1009.48 1010.12 1010.74 1011.33 1011.87 1012.35 1012.74 1013.05 1013.25 1013.35 1013.33 1013.22 1013.00 1012.70 1012.33 1011.92 1011.49 1011.06 1010.67 1010.31 1010.01 1009.76 1009.56 1009.41 1009.29 1009.19 1009.12 1009.05 1009.00 1008.96 1008.95 1008.98 1009.06 1009.20 1009.43 1009.74 1010.15 1010.63 1011.20 1011.81
1007.89 1008.46 1009.09 1009.75 1010.44 1011.11 1011.76 1012.35 1012.88 1013.33 1013.68 1013.93 1014.08 1014.13 1014.08 1013.95 1013.74 1013.48 1013.17 1012.84 1012.51 1012.18 1011.87 1011.58 1011.31 1011.08 1010.87 1010.67 1010.50 1010.35 1010.22 1010.11 1010.03 1009.99 1009.99 1010.04 1010.16 1010.35 1010.63 1010.98 1011.40 1011.89 1012.43
1008.23 1008.84 1009.49 1010.19 1010.89 1011.59 1012.26 1012.88 1013.43 1013.91 1014.30 1014.60 1014.82 1014.95 1015.00 1014.98 1014.90 1014.76 1014.58 1014.37 1014.13 1013.87 1013.61 1013.33 1013.06 1012.79 1012.53 1012.29 1012.07 1011.87 1011.71 1011.59 1011.50 1011.47 1011.48 1011.55 1011.67 1011.85 1012.09 1012.40 1012.75 1013.16 1013.60
1008.76 1009.38 1010.05 1010.74 1011.44 1012.13 1012.79 1013.40 1013.96 1014.46 1014.88 1015.24 1015.53 1015.75 1015.92 1016.03 1016.08 1016.09 1016.04 1015.95 1015.81 1015.63 1015.41 1015.15 1014.87 1014.58 1014.29 1014.02 1013.77 1013.56 1013.40 1013.30 1013.25 1013.26 1013.31 1013.42 1013.57 1013.76 1013.99 1014.24 1014.53 1014.85 1015.18
1009.43 1010.06 1010.72 1011.39 1012.06 1012.71 1013.34 1013.92 1014.46 1014.96 1015.41 1015.81 1016.18 1016.51 1016.79 1017.03 1017.23 1017.38 1017.47 1017.49 1017.44 1017.33 1017.15 1016.91 1016.63 1016.33 1016.03 1015.75 1015.50 1015.31 1015.18 1015.12 1015.12 1015.19 1015.31 1015.47 1015.66 1015.86 1016.08 1016.31 1016.53 1016.75 1016.97
1010.22 1010.83 1011.47 1012.10 1012.72 1013.32 1013.89 1014.43 1014.95 1015.43 1015.90 1016.35 1016.78 1017.20 1017.60 1017.97 1018.30 1018.58 1018.79 1018.91 1018.95 1018.90 1018.76 1018.55 1018.28 1017.98 1017.68 1017.41 1017.18 1017.02 1016.93 1016.92 1016.99 1017.12 1017.30 1017.51 1017.73 1017.96 1018.17 1018.35 1018.52 1018.66 1018.78
1011.07 1011.67 1012.27 1012.85 1013.42 1013.96 1014.47 1014.97 1015.44 1015.91 1016.39 1016.87 1017.36 1017.86 1018.36 1018.84 1019.28 1019.67 1019.98 1020.19 1020.30 1020.31 1020.21 1020.03 1019.79 1019.51 1019.23 1018.97 1018.77 1018.64 1018.60 1018.64 1018.76 1018.94 1019.16 1019.41 1019.65 1019.88 1020.07 1020.23 1020.33 1020.40 1020.42
Thickness
5790 5789 5787 5784 5780 5776 5773 5771 5767 5765 5761 5757 5753 5750 5748 5748 5747 5746 5745 5744 5743 5742 5741 5739 5738 5736 5735 5734 5732 5731 5728 5726 5726 5723 5721 5723 5724 5724 5724 5723 5722 5722 5720
5787 5787 5786 5784 5781 5778 5775 5772 5769 5766 5763 5760 5757 5754 5751 5749 5748 5747 5745 5744 5743 5742 5740 5739 5737 5736 5734 5732 5731 5730 5727 5726 5725 5722 5717 5715 5717 5721 5724 5723 5722 5722 5720
5788 5789 5787 5786 5784 5780 5777 5776 5771 5768 5765 5762 5757 5753 5750 5748 5746 5745 5744 5743 5742 5741 5740 5739 5738 5736 5735 5733 5731 5730 5727 5724 5724 5723 5719 5713 5710 5715 5720 5722 5722 5721 5720
5793 5791 5790 5788 5787 5785 5781 5777 5773 5769 5766 5763 5759 5754 5749 5745 5746 5745 5745 5744 5743 5741 5740 5739 5738 5736 5735 5733 5732 5730 5728 5725 5722 5721 5721 5719 5717 5713 5712 5717 5720 5720 5720
5797 5795 5795 5793 5791 5787 5783 5779 5774 5770 5767 5764 5761 5756 5752 5750 5747 5746 5745 5743 5742 5741 5740 5739 5737 5736 5735 5734 5732 5730 5729 5727 5724 5722 5720 5718 5716 5715 5712 5710 5714 5717 5719
5801 5799 5797 5793 5791 5789 5784 5779 5775 5771 5768 5765 5762 5758 5754 5750 5746 5745 5743 5743 5742 5741 5740 5739 5738 5737 5735 5734 5733 5731 5729 5728 5726 5724 5722 5719 5717 5714 5712 5710 5710 5712 5716
5802 5799 5796 5793 5791 5789 5786 5781 5777 5773 5770 5766 5763 5760 5757 5753 5750 5747 5745 5743 5741 5741 5741 5740 5739 5737 5736 5734 5733 5731 5729 5728 5726 5724 5723 5722 5721 5719 5716 5712 5710 5709 5712
5802 5801 5800 5797 5793 5790 5787 5783 5778 5774 5771 5768 5764 5762 5759 5755 5753 5750 5748 5746 5745 5744 5743 5741 5740 5738 5737 5735 5733 5731 5729 5728 5726 5725 5724 5722 5721 5720 5718 5715 5711 5707 5708
5803 5803 5802 5800 5796 5793 5790 5786 5781 5776 5773 5770 5766 5763 5760 5757 5754 5752 5750 5748 5747 5746 5744 5743 5741 5739 5737 5735 5733 5731 5729 5728 5726 5725 5724 5723 5722 5721 5719 5717 5715 5709 5705
5802 5803 5803 5801 5798 5795 5791 5786 5781 5777 5774 5771 5768 5765 5762 5759 5756 5754 5751 5750 5748 5747 5745 5743 5741 5739 5737 5735 5733 5731 5729 5727 5726 5725 5723 5722 5722 5720 5719 5717 5715 5713 5710
5801 5803 5803 5802 5798 5793 5789 5784 5781 5777 5773 5771 5768 5766 5764 5760 5757 5755 5753 5751 5749 5747 5745 5743 5741 5739 5737 5735 5733 5731 5729 5727 5725 5724 5723 5722 5722 5720 5719 5717 5715 5713 5711
5798 5800 5801 5799 5795 5792 5788 5784 5781 5778 5774 5771 5768 5766 5764 5761 5757 5755 5754 5752 5750 5748 5746 5744 5741 5739 5737 5736 5734 5731 5729 5727 5725 5724 5722 5722 5721 5719 5718 5716 5715 5713 5711
5793 5795 5795 5794 5792 5789 5786 5783 5780 5777 5774 5770 5767 5765 5763 5761 5758 5756 5754 5752 5750 5747 5745 5744 5742 5740 5738 5736 5735 5733 5731 5729 5727 5725 5723 5722 5720 5718 5717 5716 5714 5713 5711
5786 5787 5788 5788 5788 5787 5785 5782 5779 5776 5773 5769 5766 5764 5762 5761 5759 5757 5755 5753 5750 5748 5746 5744 5743 5741 5739 5737 5735 5733 5731 5729 5727 5726 5724 5723 5721 5719 5717 5715 5714 5712 5709
5778 5780 5781 5782 5783 5782 5782 5780 5778 5775 5773 5769 5766 5764 5762 5760 5758 5756 5754 5752 5750 5748 5746 5744 5743 5741 5739 5738 5735 5733 5731 5728 5727 5726 5725 5724 5722 5721 5718 5716 5713 5711 5708
5771 5775 5777 5778 5778 5778 5777 5776 5774 5773 5771 5768 5765 5763 5760 5757 5755 5754 5753 5750 5749 5747 5745 5744 5742 5740 5739 5738 5735 5733 5730 5728 5726 5724 5723 5723 5721 5720 5718 5716 5714 5712 5708
5766 5768 5770 5772 5773 5774 5774 5771 5770 5769 5767 5765 5762 5760 5758 5755 5754 5753 5750 5748 5746 5744 5742 5741 5740 5739 5738 5736 5734 5731 5729 5727 5725 5724 5722 5721 5721 5718 5717 5715 5712 5710 5709
5760 5762 5765 5767 5768 5769 5769 5769 5766 5763 5761 5760 5758 5756 5755 5753 5751 5749 5747 5745 5743 5741 5739 5738 5737 5736 5735 5733 5731 5729 5727 5726 5724 5723 5722 5720 5719 5717 5715 5712 5709 5707 5706
5755 5757 5760 5761 5761 5762 5763 5764 5759 5757 5755 5753 5753 5753 5752 5750 5748 5746 5744 5742 5740 5738 5736 5735 5733 5732 5731 5730 5728 5726 5724 5723 5722 5722 5721 5719 5717 5715 5712 5709 5705 5703 5702
5748 5750 5753 5754 5753 5754 5757 5755 5752 5750 5749 5749 5748 5748 5747 5746 5744 5742 5740 5738 5736 5734 5732 5730 5729 5727 5726 5726 5725 5723 5722 5720 5719 5719 5718 5716 5713 5711 5708 5705 5702 5698 5697
5739 5742 5744 5744 5745 5747 5748 5746 5744 5742 5743 5743 5743 5742 5741 5740 5738 5736 5734 5732 5730 5728 5726 5724 5723 5723 5722 5721 5720 5718 5717 5716 5715 5714 5712 5711 5708 5705 5702 5700 5698 5695 5692
5730 5732 5734 5735 5737 5739 5739 5738 5735 5736 5736 5736 5734 5734 5733 5733 5731 5729 5727 5725 5723 5721 5719 5718 5717 5717 5716 5715 5714 5713 5711 5711 5709 5708 5707 5705 5703 5699 5696 5694 5692 5688 5684
5720 5723 5725 5726 5727 5729 5730 5729 5728 5728 5728 5726 5725 5725 5725 5724 5723 5721 5719 5717 5716 5714 5713 5711 5710 5710 5710 5709 5708 5707 5706 5704 5703 5702 5700 5698 5696 5692 5689 5686 5683 5680 5676
5710 5712 5715 5716 5716 5719 5720 5720 5721 5721 5720 5718 5717 5717 5716 5715 5714 5713 5711 5709 5708 5707 5706 5704 5703 5703 5702 5702 5702 5701 5699 5697 5695 5694 5691 5689 5685 5683 5680 5677 5673 5670 5668
5700 5702 5704 5706 5707 5709 5710 5711 5713 5714 5712 5710 5709 5709 5708 5707 5705 5703 5701 5700 5698 5698 5697 5696 5696 5695 5694 5693 5692 5692 5692 5690 5688 5685 5682 5679 5676 5673 5669 5666 5663 5661 5658
5692 5694 5695 5696 5697 5699 5701 5701 5703 5704 5703 5701 5700 5699 5699 5698 5696 5694 5691 5689 5688 5688 5687 5687 5686 5685 5684 5684 5684 5683 5681 5680 5678 5676 5671 5668 5665 5662 5659 5656 5652 5650 5647